Weather History for Hallock, MN

Change the Weather History Date:

Monday, February 11, 2013

  Actual Average Record
Temperature  
Mean Temperature 14 °F -  
Max Temperature 23 °F 12 °F 48 °F (2002)
Min Temperature 6 °F -6 °F -32 °F (1939)
Degree Days  
Heating Degree Days 50    
Moisture  
Dew Point 13 °F    
Average Humidity 87    
Maximum Humidity 93    
Minimum Humidity 79    
Precipitation  
Precipitation 0.00 in - - ()
Sea Level Pressure  
Sea Level Pressure 29.88 in    
Wind  
Wind Speed 17 mph (NW)    
Max Wind Speed 26 mph    
Max Gust Speed 33 mph    
Visibility 8 miles    
Events Snow    
Averages and records for this station are not official NWS values.
T = Trace of Precipitation, MM = Missing Value Source: NWS Daily Summary

Daily Weather History Graph

Daily Weather History Graph

Search for Another Location

Airport:

Trip Planner

Search our weather history database for the weather conditions in past years. The results will help you decide how hot, cold, wet, or windy it might be!

Date:

Astronomy

Feb. 11, 2013 Rise Set
Actual Time 7:41 AM CST 5:42 PM CST
Civil Twilight 7:09 AM CST 6:15 PM CST
Nautical Twilight 6:32 AM CST 6:52 PM CST
Astronomical Twilight 5:55 AM CST 7:29 PM CST
Moon 7:54 AM CST (2/11) 7:55 PM CST (2/11)
Length of Visible Light 11h 06m
Length of Day
10h 00m
Waxing Crescent, 3% of the Moon is Illuminated
Feb 11
Waxing Crescent
Feb 17
First Quarter
Feb 25
Full
Mar 4
Last Quarter
Mar 11
New

Hourly Weather History & Observations

Time (CST) Temp. Windchill Dew Point Humidity Pressure Visibility Wind Dir Wind Speed Gust Speed Precip Events Conditions
12:13 AM 23.0 °F 8.3 °F 19.4 °F 86% 29.75 in 10.0 mi North 19.6 mph 32.2 mph N/A   Overcast
12:34 AM 23.0 °F 7.2 °F 21.2 °F 93% 29.76 in 10.0 mi North 23.0 mph 27.6 mph N/A   Overcast
12:54 AM 23.0 °F 8.0 °F 21.2 °F 93% 29.76 in 10.0 mi North 20.7 mph 27.6 mph N/A   Overcast
1:14 AM 23.0 °F 6.9 °F 21.2 °F 93% 29.76 in 10.0 mi North 24.2 mph 28.8 mph N/A   Overcast
1:34 AM 23.0 °F 8.0 °F 19.4 °F 86% 29.77 in 10.0 mi North 20.7 mph 28.8 mph N/A   Overcast
1:54 AM 23.0 °F 8.3 °F 19.4 °F 86% 29.78 in 10.0 mi North 19.6 mph 27.6 mph N/A   Overcast
2:14 AM 23.0 °F 8.0 °F 19.4 °F 86% 29.79 in 10.0 mi North 20.7 mph 25.3 mph N/A   Overcast
2:54 AM 23.0 °F 8.7 °F 19.4 °F 86% 29.80 in 10.0 mi North 18.4 mph 29.9 mph N/A   Overcast
3:14 AM 21.2 °F 6.0 °F 19.4 °F 93% 29.80 in 10.0 mi North 19.6 mph 29.9 mph N/A   Overcast
3:34 AM 23.0 °F 7.6 °F 17.6 °F 80% 29.81 in 10.0 mi North 21.9 mph 27.6 mph N/A   Overcast
3:54 AM 17.6 °F -0.6 °F 15.8 °F 93% 29.81 in 4.0 mi NNW 25.3 mph 31.1 mph N/A   Overcast
4:14 AM 17.6 °F -1.0 °F 15.8 °F 93% 29.82 in 3.0 mi NNW 26.5 mph 31.1 mph N/A   Overcast
4:34 AM 19.4 °F 1.8 °F 17.6 °F 93% 29.82 in 3.0 mi NNW 25.3 mph 33.4 mph N/A   Overcast
4:54 AM 19.4 °F 2.8 °F 17.6 °F 93% 29.83 in 3.0 mi NNW 21.9 mph 28.8 mph N/A   Overcast
5:14 AM 17.6 °F 0.5 °F 15.8 °F 93% 29.84 in 2.5 mi NNW 21.9 mph 28.8 mph N/A   Overcast
5:54 AM 15.8 °F -2.7 °F 14.0 °F 93% 29.85 in 3.0 mi NNW 24.2 mph 28.8 mph N/A   Overcast
6:14 AM 15.8 °F -1.9 °F 14.0 °F 93% 29.85 in 2.0 mi NNW 21.9 mph 29.9 mph N/A Snow Light Snow
6:34 AM 15.8 °F -1.1 °F 14.0 °F 93% 29.86 in 2.0 mi NNW 19.6 mph 24.2 mph N/A Snow Light Snow
6:54 AM 15.8 °F -1.5 °F 12.2 °F 86% 29.87 in 1.8 mi NNW 20.7 mph 27.6 mph N/A Snow Light Snow
7:14 AM 14.0 °F -4.3 °F 12.2 °F 93% 29.87 in 1.2 mi NNW 21.9 mph 27.6 mph N/A Snow Light Snow
7:34 AM 12.2 °F -5.3 °F 10.4 °F 92% 29.88 in 2.0 mi NNW 18.4 mph - N/A Snow Light Snow
7:54 AM 12.2 °F -5.3 °F 10.4 °F 92% 29.89 in 1.8 mi NW 18.4 mph 25.3 mph N/A Snow Light Snow
8:14 AM 12.2 °F -5.8 °F 8.6 °F 85% 29.90 in 2.0 mi NNW 19.6 mph - N/A Snow Light Snow
8:34 AM 12.2 °F -5.8 °F 8.6 °F 85% 29.90 in 1.8 mi NNW 19.6 mph - N/A Snow Light Snow
8:54 AM 12.2 °F -5.8 °F 8.6 °F 85% 29.91 in 2.0 mi NNW 19.6 mph - N/A Snow Light Snow
9:14 AM 12.2 °F -4.3 °F 8.6 °F 85% 29.92 in 2.5 mi NNW 16.1 mph - N/A Snow Light Snow
9:34 AM 12.2 °F -4.8 °F 10.4 °F 92% 29.92 in 2.0 mi NNW 17.3 mph - N/A Snow Light Snow
9:54 AM 12.2 °F -4.8 °F 10.4 °F 92% 29.92 in 3.0 mi NNW 17.3 mph - N/A Snow Light Snow
10:14 AM 12.2 °F -3.7 °F 10.4 °F 92% 29.93 in 4.0 mi NNW 15.0 mph - N/A Snow Light Snow
10:34 AM 12.2 °F -3.7 °F 10.4 °F 92% 29.94 in 7.0 mi NNW 15.0 mph - N/A   Overcast
10:53 AM 14.0 °F -1.4 °F 10.4 °F 86% 29.94 in 7.0 mi NNW 15.0 mph - N/A   Overcast
11:14 AM 14.0 °F -1.4 °F 10.4 °F 86% 29.94 in 7.0 mi NNW 15.0 mph - N/A   Overcast
11:34 AM 14.0 °F -3.0 °F 10.4 °F 86% 29.94 in 7.0 mi NNW 18.4 mph - N/A   Overcast
11:53 AM 15.8 °F 1.4 °F 10.4 °F 79% 29.94 in 10.0 mi NW 13.8 mph - N/A   Overcast
12:14 PM 15.8 °F 1.4 °F 10.4 °F 79% 29.95 in 10.0 mi NW 13.8 mph - N/A   Overcast
12:34 PM 15.8 °F 2.1 °F 10.4 °F 79% 29.94 in 10.0 mi NW 12.7 mph - N/A   Overcast
12:53 PM 15.8 °F 1.4 °F 10.4 °F 79% 29.94 in 10.0 mi NNW 13.8 mph - N/A   Overcast
1:14 PM 15.8 °F 2.7 °F 10.4 °F 79% 29.93 in 10.0 mi NW 11.5 mph - N/A   Overcast
1:34 PM 15.8 °F 2.7 °F 12.2 °F 86% 29.93 in 10.0 mi NNW 11.5 mph - N/A   Overcast
1:53 PM 15.8 °F 4.2 °F 12.2 °F 86% 29.93 in 10.0 mi NNW 9.2 mph - N/A   Scattered Clouds
2:14 PM 15.8 °F 4.2 °F 12.2 °F 86% 29.93 in 10.0 mi NW 9.2 mph - N/A   Clear
2:33 PM 15.8 °F 4.2 °F 12.2 °F 86% 29.93 in 10.0 mi NW 9.2 mph - N/A   Clear
2:54 PM 17.6 °F 6.4 °F 12.2 °F 79% 29.93 in 10.0 mi NW 9.2 mph - N/A   Clear
3:14 PM 17.6 °F 8.2 °F 12.2 °F 79% 29.93 in 10.0 mi NW 6.9 mph - N/A   Clear
3:34 PM 17.6 °F 10.7 °F 12.2 °F 79% 29.93 in 10.0 mi WNW 4.6 mph - N/A   Clear
3:54 PM 17.6 °F 12.3 °F 12.2 °F 79% 29.93 in 10.0 mi WNW 3.5 mph - N/A   Clear
4:54 PM 15.8 °F - 12.2 °F 86% 29.93 in 10.0 mi Calm Calm - N/A   Overcast
5:14 PM 15.8 °F - 12.2 °F 86% 29.92 in 10.0 mi Calm Calm - N/A   Overcast
5:34 PM 15.8 °F 10.2 °F 12.2 °F 86% 29.92 in 10.0 mi South 3.5 mph - N/A Snow Light Snow
5:54 PM 15.8 °F 8.6 °F 12.2 °F 86% 29.92 in 10.0 mi South 4.6 mph - N/A   Overcast
6:14 PM 15.8 °F 7.2 °F 12.2 °F 86% 29.92 in 10.0 mi South 5.8 mph - N/A   Overcast
6:34 PM 15.8 °F 7.2 °F 12.2 °F 86% 29.92 in 10.0 mi South 5.8 mph - N/A   Overcast
6:54 PM 15.8 °F 7.2 °F 14.0 °F 93% 29.91 in 10.0 mi South 5.8 mph - N/A   Overcast
7:14 PM 17.6 °F 5.0 °F 15.8 °F 93% 29.91 in 10.0 mi SW 11.5 mph - N/A Snow Light Snow
7:34 PM 17.6 °F 6.4 °F 12.2 °F 79% 29.91 in 10.0 mi WSW 9.2 mph - N/A   Scattered Clouds
7:53 PM 14.0 °F 2.9 °F 10.4 °F 86% 29.90 in 10.0 mi WSW 8.1 mph - N/A   Clear
8:14 PM 12.2 °F 0.7 °F 8.6 °F 85% 29.90 in 10.0 mi SW 8.1 mph - N/A   Clear
8:34 PM 8.6 °F -4.7 °F 6.8 °F 92% 29.89 in 10.0 mi SSW 9.2 mph - N/A   Clear
8:54 PM 6.8 °F -6.9 °F 3.2 °F 85% 29.90 in 10.0 mi SSW 9.2 mph - N/A   Clear
9:14 PM 8.6 °F -4.7 °F 6.8 °F 92% 29.89 in 10.0 mi SSW 9.2 mph - N/A   Scattered Clouds
9:34 PM 8.6 °F -4.7 °F 5.0 °F 85% 29.88 in 10.0 mi South 9.2 mph - N/A   Scattered Clouds
9:54 PM 8.6 °F -7.7 °F 6.8 °F 92% 29.86 in 10.0 mi South 13.8 mph - N/A   Clear
10:14 PM 10.4 °F -4.1 °F 8.6 °F 92% 29.86 in 10.0 mi South 11.5 mph - N/A   Clear
10:34 PM 14.0 °F -0.8 °F 10.4 °F 86% 29.85 in 10.0 mi South 13.8 mph - N/A   Clear
10:54 PM 15.8 °F 0.9 °F 12.2 °F 86% 29.84 in 10.0 mi South 15.0 mph - N/A   Scattered Clouds
11:14 PM 15.8 °F 1.4 °F 10.4 °F 79% 29.83 in 10.0 mi South 13.8 mph - N/A   Scattered Clouds
11:34 PM 14.0 °F -1.4 °F 10.4 °F 86% 29.82 in 10.0 mi South 15.0 mph - N/A   Clear
11:54 PM 15.8 °F 0.9 °F 12.2 °F 86% 29.81 in 10.0 mi South 15.0 mph - N/A   Clear